Regional Weather Roundup
Issued by NWS

Home | Current Version | Previous Version | Text Only | Print | Product List | Glossary Off
Versions: 1 2 3 4 5 6 7 8 9 10 11 12 13 14 15 16 17 18 19 20 21 22 23 24 25 26 27 28 29 30 31 32 33 34 35 36 37 38 39 40 41 42 43 44 45 46 47 48

000
ASUS45 KCYS 300510
RWRWY

WYOMING REGIONAL WEATHER ROUNDUP
NATIONAL WEATHER SERVICE CHEYENNE WY
1100 PM MDT MON SEP 29 2014

NOTE:  "FAIR" INDICATES FEW OR NO CLOUDS BELOW 12,000 FEET
WITH NO SIGNIFICANT WEATHER AND/OR OBSTRUCTIONS TO VISIBILITY.

WYZ001-300600-
YELLOWSTONE NATIONAL PARK

CITY           SKY/WX    TMP DP  RH WIND       PRES   REMARKS
LK YELLOWSTONE   N/A     40  35  83 VRB3      30.01S
W YELLOWSTONE  NOT AVBL

$$
WYZ002>013-054>058-071-098>099-300600-
NORTHERN WYOMING

CITY           SKY/WX    TMP DP  RH WIND       PRES   REMARKS
JACKSON        CLOUDY    45  41  87 S6        29.99S
CODY           PTCLDY    54  37  54 W8G18     29.84S
GREYBULL       CLOUDY    53  48  83 E3        29.80S
WORLAND        CLOUDY    54  46  74 E5        29.81S
SHERIDAN       CLOUDY    52  49  89 NW5       29.80S
BUFFALO        CLOUDY    52  47  83 NW10      29.83F
GILLETTE       CLOUDY    52  49  89 SE9       29.81F
HULETT         FOG       50  48  93 N3        29.84  VSB<1/4
NEWCASTLE      RAIN      52  52 100 CALM      29.82

$$
WYZ014>020-022>026-101>103-300600-
CENTRAL WYOMING

CITY           SKY/WX    TMP DP  RH WIND       PRES   REMARKS
BIG PINEY      MOCLDY    41  37  86 NW5       30.02R
PINEDALE       CLOUDY    43  39  87 NW7       30.03R
DUBOIS         CLOUDY    41  34  75 NW8       29.95R
LANDER         PTCLDY    51  32  48 SW10      29.88R
RIVERTON       PTCLDY    51  36  56 NW15      29.89R
CASPER         CLOUDY    52  43  71 SW6       29.84F
DOUGLAS        CLOUDY    53  46  77 S5        29.83F

$$
WYZ021-027>030-104>119-300600-
SOUTHERN WYOMING

CITY           SKY/WX    TMP DP  RH WIND       PRES   REMARKS
EVANSTON       MOCLDY    40  37  89 SW8       30.07R WCI  34
KEMMERER       MOCLDY    39  37  93 W6        30.06R WCI  35
FORT BRIDGER   CLOUDY    44  40  88 W12       30.09R
ROCK SPRINGS   MOCLDY    45  39  79 W15       30.02R
DIXON          CLOUDY    48  40  75 SW13G21   30.04R
RAWLINS        CLOUDY    47  38  71 SW14      29.97R
SARATOGA         N/A     46  37  71 W13       29.98S
LARAMIE        LGT RAIN  43  39  86 W12       29.93F
CHEYENNE       LGT RAIN  44  42  93 NW12      29.87R
TORRINGTON     LGT RAIN  50  49  96 W18G29    29.74F
PINE BLUFFS    LGT RAIN  46  43  87 NW30G36   29.79S

$$



USA.gov is the U.S. government's official web portal to all federal, state and local government web resources and services.